Japanese version Home page |
Updated on March 7, 2020 |
Profile
|
Orbital ElementsEpoch 2007 May 20.0 TT = JDT 2454240.5 T 2007 June 8.43305 TT MPC q 2.2686161 (2000.0) P Q n 0.05120893 Peri. 345.67583 -0.99658270 -0.07942340 a 7.1818925 Node 189.85289 +0.08260100 -0.95806109 e 0.6841200 Incl. 7.61985 +0.00005514 -0.27533774 P 19.2 From 47 observations 2007 Apr. 11-July 11, mean residual 0".7.
|
Magnitudes Graphm1 = 13.5 + 5 log d + 10.0 log r
|
The orbital elements are published on M.P.E.C. 2013-B90.
|